Regional Weather Roundup
Issued by NWS Jackson, KY

Home | Current Version | Previous Version | Graphics & Text | Print | Product List | Glossary On
Versions: 1 2 3 4 5 6 7 8 9 10 11 12 13 14 15 16 17 18 19 20 21 22 23 24 25 26 27 28
000
ASUS43 KJKL 240810
RWRJKL

EAST KENTUCKY HOURLY WEATHER ROUNDUP
NATIONAL WEATHER SERVICE JACKSON KY
400 AM EDT TUE MAY 24 2016

NOTE: "FAIR" INDICATES FEW OR NO CLOUDS BELOW 12,000 FEET WITH
NO SIGNIFICANT WEATHER AND/OR OBSTRUCTIONS TO VISIBILITY.

* THESE REPORTS ARE NOT UNDER NWS QUALITY CONTROL AND MAY NOT
  REPORT WEATHER SUCH AS PRECIPITATION AND FOG.

KYZ079-080-083-085-087-088-110-112-115-119-120-240900
...EASTERN KENTUCKY...

CITY           SKY/WX    TMP DP  RH WIND       PRES   REMARKS
JACKSON        CLEAR     57  49  74 CALM      30.06S
LONDON         CLEAR     51  48  89 CALM      30.05S
SOMERSET*      CLEAR     48  48 100 CALM      30.05F
MONTICELLO*    CLEAR     49  48  97 NW9       30.05F
WILLIAMSBURG*  SUNNY     52  52 100 SE5       30.06S
MIDDLESBORO*   CLEAR     49  49  99 CALM      30.09S
HARLAN APT*      N/A     50  46  87 CALM      30.09S
HAZARD APT*    SUNNY     50  50 100 CALM      30.07S
BLACK MTN*       N/A     52  46  82 S3          N/A
PIKE CO APT*     N/A     55  53  94 S6        30.06S
BIG SANDY APT* SUNNY     55  53  91 CALM      30.06S
MOREHEAD APT*  SUNNY     52  50  93 S3        30.07R
ASHLAND*       CLEAR     52  50  93 CALM      30.03R
$$

KYZ035-036-041-042-044-050-067-078-099-240900
...CENTRAL KENTUCKY...

CITY           SKY/WX    TMP DP  RH WIND       PRES   REMARKS
MT STERLING*   CLEAR     52  52 100 CALM      30.06S
FLEMING/MASON* CLEAR     55  51  87 S3        30.06R
DANVILLE*      CLEAR     50  50 100 CALM      30.05F
RICHMOND*      CLEAR     52  48  87 SE3       30.04F
LEXINGTON      CLEAR     54  50  86 S3        30.04S
FRANKFORT      CLEAR     52  48  86 E5        30.01F
LOUISVILLE     PTCLDY    61  50  67 S5        30.00S
LEBANON*         N/A     59  48  67 SE3       30.03S
GLASGOW*       CLEAR     49  49 100 CALM      30.03S
BOWLING GREEN  CLEAR     53  49  86 NE3       30.02S
$$

KYZ091>093-OHZ055-061-077-WVZ005-015-034-035-042-240900
...SOUTHERN OHIO/WEST VIRGINIA...

CITY           SKY/WX    TMP DP  RH WIND       PRES   REMARKS
COVINGTON      CLEAR     55  51  86 CALM      30.02F
COLUMBUS       CLEAR     52  50  93 CALM      30.03R
DAYTON         CLEAR     58  48  69 SW6       30.04S
WILMINGTON     CLEAR     53  51  93 CALM      30.04R
HUNTINGTON       N/A     51  49  92 CALM      30.04R
CHARLESTON       N/A     53  50  89 CALM      30.05R
PINEVILLE*     FOG       51  48  91 MISG      30.13S VSB 1/4
BECKLEY          N/A     49  46  90 CALM      30.08F
BLUEFIELD        N/A     48  45  89 W7        30.10S
LOGAN CO APT*    N/A     54  52  94 CALM      30.06S
$$

VAZ002-007-008-TNZ017-027-036-066-071-240900
...SOUTHWEST VIRGINIA/EAST TENNESSEE...

CITY           SKY/WX    TMP DP  RH WIND       PRES   REMARKS
WISE*            N/A     50  48  93 SW3       30.12R
JONESVILLE*      N/A     50  48  93 CALM      30.11R
ABINGDON*        N/A     50  49  95 CALM      30.10S
BRISTOL        CLEAR     49  48  97 CALM      30.09S
SEVIERVILLE*   SUNNY     52  48  87 CALM      30.06R
KNOXVILLE      CLEAR     55  50  83 CALM      30.05R
OAK RIDGE      CLEAR     54  50  86 CALM      30.07S
CROSSVILLE     CLEAR     52  46  80 CALM      30.07S
NASHVILLE      CLEAR     57  52  83 S3        30.03R
$$

...KEY TO REMARKS...
VSB - VISIBILITY IN MILES
WCI - WIND CHILL INDEX
HX  - HEAT INDEX

$$




USA.gov is the U.S. government's official web portal to all federal, state and local government web resources and services.